DW6610 Weather Reports


Display with metric or nautical units.
time (UTC)temp
F
wind
direction
speed
MPH
gust
MPH
rain 1hr
in
rain 24hr
in
rain mn
in
humidity
%
barometer
mb
20260902203102 103 49 1.0 6.0 0.00 0.00 0.00 44 1016.3
20260902202552 102 73 1.0 6.0 0.00 0.00 0.00 43 1016.3
20260902202052 102 95 2.0 5.0 0.00 0.00 0.00 46 1016.4
20260902201623 102 91 2.0 5.0 0.00 0.00 0.00 44 1016.5
20260902201051 102 71 1.0 5.0 0.00 0.00 0.00 43 1016.5
20260902200551 102 303 1.0 5.0 0.00 0.00 0.00 46 1016.6
20260902200108 102 86 2.0 6.0 0.00 0.00 0.00 44 1016.7
20260902195552 102 0 1.0 6.0 0.00 0.00 0.00 47 1016.7
20260902195051 102 108 1.0 6.0 0.00 0.00 0.00 46 1016.7
20260902194603 101 290 2.0 6.0 0.00 0.00 0.00 47 1016.9
20260902194051 101 27 1.0 6.0 0.00 0.00 0.00 48 1016.8
20260902193554 101 35 2.0 6.0 0.00 0.00 0.00 49 1017.0
20260902193105 100 269 1.0 3.0 0.00 0.00 0.00 48 1017.0
20260902192551 100 143 1.0 6.0 0.00 0.00 0.00 45 1017.1
20260902192051 101 94 2.0 6.0 0.00 0.00 0.00 45 1017.2
20260902191606 102 325 3.0 5.0 0.00 0.00 0.00 46 1017.3
20260902191051 101 84 2.0 7.0 0.00 0.00 0.00 48 1017.2
20260902190552 101 34 2.0 7.0 0.00 0.00 0.00 46 1017.4
20260902190104 101 87 2.0 5.0 0.00 0.00 0.00 49 1017.4
20260902185550 101 95 2.0 5.0 0.00 0.00 0.00 49 1017.4
20260902185052 100 114 2.0 7.0 0.00 0.00 0.00 46 1017.5
20260902184657 99 98 3.0 7.0 0.00 0.00 0.00 48 1017.5
20260902184051 99 67 1.0 5.0 0.00 0.00 0.00 50 1017.5
20260902183552 98 255 1.0 5.0 0.00 0.00 0.00 49 1017.6
20260902183105 100 26 2.0 7.0 0.00 0.00 0.00 45 1017.7
20260902182552 101 94 3.0 7.0 0.00 0.00 0.00 47 1017.9
20260902182051 101 71 2.0 7.0 0.00 0.00 0.00 50 1017.9
20260902181604 101 50 1.0 5.0 0.00 0.00 0.00 48 1017.9
20260902181051 100 86 2.0 7.0 0.00 0.00 0.00 47 1017.9
20260902180551 100 97 2.0 7.0 0.00 0.00 0.00 48 1018.0
20260902180118 99 87 2.0 4.0 0.00 0.00 0.00 50 1018.0
20260902175552 99 64 2.0 4.0 0.00 0.00 0.00 49 1018.1
20260902175052 99 153 1.0 6.0 0.00 0.00 0.00 50 1018.2
20260902174609 100 92 2.0 6.0 0.00 0.00 0.00 47 1018.3
20260902174054 99 37 2.0 6.0 0.00 0.00 0.00 49 1018.3
20260902173553 99 261 2.0 5.0 0.00 0.00 0.00 51 1018.4
20260902173104 100 115 0.0 5.0 0.00 0.00 0.00 51 1018.4
20260902172551 98 92 2.0 5.0 0.00 0.00 0.00 55 1018.5
20260902172052 98 283 1.0 5.0 0.00 0.00 0.00 52 1018.5
20260902171606 99 25 1.0 5.0 0.00 0.00 0.00 52 1018.6
20260902171051 100 79 2.0 5.0 0.00 0.00 0.00 50 1018.8
20260902170551 100 46 1.0 5.0 0.00 0.00 0.00 51 1018.9
20260902170105 99 24 1.0 6.0 0.00 0.00 0.00 53 1019.1
20260902165552 99 47 2.0 6.0 0.00 0.00 0.00 50 1019.1
20260902165052 100 331 3.0 6.0 0.00 0.00 0.00 50 1019.2
20260902164607 100 319 1.0 5.0 0.00 0.00 0.00 51 1019.3
20260902164052 99 105 1.0 3.0 0.00 0.00 0.00 58 1019.3
20260902163552 99 13 1.0 5.0 0.00 0.00 0.00 57 1019.4
20260902163101 99 100 1.0 5.0 0.00 0.00 0.00 55 1019.5
20260902162551 98 65 0.0 4.0 0.00 0.00 0.00 57 1019.5
20260902162054 98 93 0.0 5.0 0.00 0.00 0.00 61 1019.6
20260902161604 97 98 2.0 5.0 0.00 0.00 0.00 58 1019.6
20260902161052 98 94 0.0 3.0 0.00 0.00 0.00 61 1019.6
20260902160551 98 105 0.0 3.0 0.00 0.00 0.00 60 1019.5
20260902155552 96 134 1.0 4.0 0.00 0.00 0.00 58 1019.6
20260902155118 96 84 1.0 4.0 0.00 0.00 0.00 59 1019.6
20260902154602 96 42 1.0 4.0 0.00 0.00 0.00 59 1019.6
20260902154051 96 56 0.0 4.0 0.00 0.00 0.00 61 1019.6
20260902153551 96 76 1.0 4.0 0.00 0.00 0.00 60 1019.7
20260902153113 96 101 1.0 4.0 0.00 0.00 0.00 60 1019.7
20260902152551 95 80 1.0 4.0 0.00 0.00 0.00 62 1019.7
20260902152051 95 97 1.0 4.0 0.00 0.00 0.00 66 1019.6
20260902151603 95 169 1.0 4.0 0.00 0.00 0.00 64 1019.6
20260902151055 95 141 1.0 4.0 0.00 0.00 0.00 65 1019.7
20260902150551 95 99 1.0 3.0 0.00 0.00 0.00 63 1019.7
20260902150105 95 86 1.0 3.0 0.00 0.00 0.00 67 1019.7
20260902145552 95 89 1.0 3.0 0.00 0.00 0.00 65 1019.7
20260902145051 94 79 0.0 1.0 0.00 0.00 0.00 67 1019.7
20260902144604 94 115 0.0 1.0 0.00 0.00 0.00 66 1019.7
20260902144051 93 112 0.0 2.0 0.00 0.00 0.00 68 1019.7
20260902143551 92 113 0.0 2.0 0.00 0.00 0.00 70 1019.7
20260902143105 92 164 1.0 2.0 0.00 0.00 0.00 68 1019.7
20260902142552 92 0 0.0 2.0 0.00 0.00 0.00 70 1019.7
20260902142053 92 92 0.0 2.0 0.00 0.00 0.00 69 1019.7
20260902141604 91 70 0.0 1.0 0.00 0.00 0.00 70 1019.7
20260902141052 90 115 0.0 3.0 0.00 0.00 0.00 71 1019.7
20260902140552 90 107 0.0 3.0 0.00 0.00 0.00 72 1019.7
20260902140108 89 92 0.0 2.0 0.00 0.00 0.00 72 1019.7
20260902135551 89 73 0.0 2.0 0.00 0.00 0.00 74 1019.8
20260902135051 88 86 0.0 2.0 0.00 0.00 0.00 73 1019.8
20260902134604 88 0 0.0 2.0 0.00 0.00 0.00 74 1019.8
20260902134051 87 0 0.0 2.0 0.00 0.00 0.00 74 1019.7
20260902133552 86 0 0.0 2.0 0.00 0.00 0.00 77 1019.8
20260902133105 85 0 0.0 2.0 0.00 0.00 0.00 79 1019.7
20260902132552 83 0 0.0 2.0 0.00 0.00 0.00 79 1019.7
20260902132051 82 63 1.0 2.0 0.00 0.00 0.00 81 1019.7
20260902131617 81 32 0.0 2.0 0.00 0.00 0.00 83 1019.7
20260902131053 80 70 0.0 2.0 0.00 0.00 0.00 86 1019.6
20260902130552 79 70 0.0 1.0 0.00 0.00 0.00 88 1019.7
20260902130108 78 0 0.0 1.0 0.00 0.00 0.00 89 1019.6
20260902125555 77 0 0.0 1.0 0.00 0.00 0.00 90 1019.7
20260902125052 76 0 0.0 1.0 0.00 0.00 0.00 91 1019.6
20260902124606 75 79 0.0 1.0 0.00 0.00 0.00 92 1019.5
20260902124051 75 0 0.0 1.0 0.00 0.00 0.00 92 1019.5
20260902123551 74 0 0.0 0.0 0.00 0.00 0.00 93 1019.5
20260902123107 74 0 0.0 0.0 0.00 0.00 0.00 93 1019.4
20260902122552 74 0 0.0 0.0 0.00 0.00 0.00 94 1019.4
20260902122051 74 0 0.0 0.0 0.00 0.00 0.00 94 1019.4
20260902121609 73 0 0.0 0.0 0.00 0.00 0.00 95 1019.4
20260902121052 73 0 0.0 0.0 0.00 0.00 0.00 95 1019.3
20260902120554 73 0 0.0 0.0 0.00 0.00 0.00 95 1019.1
20260902120104 73 0 0.0 0.0 0.00 0.00 0.00 96 1019.0
20260902115552 73 0 0.0 1.0 0.00 0.00 0.00 96 1018.9
20260902115052 72 0 0.0 1.0 0.00 0.00 0.00 96 1018.9
20260902114601 72 0 0.0 1.0 0.00 0.00 0.00 96 1019.0
20260902114052 72 0 0.0 0.0 0.00 0.00 0.00 97 1018.9
20260902113554 72 0 0.0 0.0 0.00 0.00 0.00 97 1018.9
20260902113107 72 0 0.0 0.0 0.00 0.00 0.00 96 1018.8
20260902112551 72 0 0.0 0.0 0.00 0.00 0.00 96 1018.8
20260902112051 72 0 0.0 0.0 0.00 0.00 0.00 96 1018.8
20260902111606 72 0 0.0 0.0 0.00 0.00 0.00 97 1018.7
20260902111052 72 0 0.0 0.0 0.00 0.00 0.00 97 1018.7
20260902110552 72 0 0.0 0.0 0.00 0.00 0.00 96 1018.5
20260902110059 73 0 0.0 0.0 0.00 0.00 0.00 96 1018.4
20260902105551 73 0 0.0 0.0 0.00 0.00 0.00 96 1018.4
20260902105051 73 0 0.0 0.0 0.00 0.00 0.00 96 1018.4
20260902104613 73 0 0.0 0.0 0.00 0.00 0.00 96 1018.4
20260902104050 73 0 0.0 0.0 0.00 0.00 0.00 95 1018.5
20260902103551 73 0 0.0 0.0 0.00 0.00 0.00 95 1018.4
20260902103107 73 0 0.0 0.0 0.00 0.00 0.00 95 1018.4
20260902102553 73 0 0.0 0.0 0.00 0.00 0.00 95 1018.3
20260902102056 73 0 0.0 0.0 0.00 0.00 0.00 95 1018.2
20260902101601 73 0 0.0 0.0 0.00 0.00 0.00 95 1018.1
20260902101052 73 0 0.0 0.0 0.00 0.00 0.00 96 1018.0
20260902100552 73 0 0.0 0.0 0.00 0.00 0.00 96 1018.0
20260902100101 73 0 0.0 0.0 0.00 0.00 0.00 96 1018.0
20260902095552 73 0 0.0 0.0 0.00 0.00 0.00 96 1017.9
20260902095051 73 0 0.0 0.0 0.00 0.00 0.00 96 1017.9
20260902094557 73 0 0.0 0.0 0.00 0.00 0.00 96 1017.8
20260902094051 73 0 0.0 0.0 0.00 0.00 0.00 96 1017.8
20260902093551 73 0 0.0 0.0 0.00 0.00 0.00 96 1017.8
20260902093101 73 0 0.0 0.0 0.00 0.00 0.00 96 1017.8
20260902092549 73 0 0.0 0.0 0.00 0.00 0.00 95 1017.9
20260902092053 74 0 0.0 0.0 0.00 0.00 0.00 95 1017.7
20260902091611 74 0 0.0 0.0 0.00 0.00 0.00 95 1017.7
20260902091052 74 0 0.0 0.0 0.00 0.00 0.00 95 1017.7
20260902090554 74 0 0.0 0.0 0.00 0.00 0.00 94 1017.7
20260902090104 74 0 0.0 0.0 0.00 0.00 0.00 94 1017.7
20260902085551 74 0 0.0 0.0 0.00 0.00 0.00 94 1017.6
20260902085051 74 0 0.0 0.0 0.00 0.00 0.00 94 1017.7
20260902084609 74 0 0.0 0.0 0.00 0.00 0.00 94 1017.6
20260902084051 74 0 0.0 0.0 0.00 0.00 0.00 94 1017.7
20260902083551 74 0 0.0 1.0 0.00 0.00 0.00 93 1017.7
20260902083117 75 0 0.0 1.0 0.00 0.00 0.00 93 1017.7
20260902082552 75 0 0.0 1.0 0.00 0.00 0.00 93 1017.7
20260902082052 75 0 0.0 1.0 0.00 0.00 0.00 93 1017.7
20260902081558 75 0 0.0 1.0 0.00 0.00 0.00 93 1017.7
20260902081052 75 0 0.0 1.0 0.00 0.00 0.00 92 1017.6
20260902080554 75 0 0.0 1.0 0.00 0.00 0.00 91 1017.6
20260902075554 76 0 0.0 0.0 0.00 0.00 0.00 90 1017.7
20260902075051 76 0 0.0 0.0 0.00 0.00 0.00 90 1017.8
20260902074623 76 0 0.0 0.0 0.00 0.00 0.00 89 1017.8
20260902074052 76 0 0.0 1.0 0.00 0.00 0.00 89 1017.8
20260902073551 76 0 0.0 1.0 0.00 0.00 0.00 89 1017.9
20260902073103 76 0 0.0 0.0 0.00 0.00 0.00 89 1017.8
20260902072551 76 0 0.0 1.0 0.00 0.00 0.00 88 1017.8
20260902072052 76 0 0.0 1.0 0.00 0.00 0.00 88 1017.8
20260902071604 76 79 0.0 1.0 0.00 0.00 0.00 89 1017.8
20260902071056 76 0 0.0 1.0 0.00 0.00 0.00 89 1017.7
20260902070551 76 79 0.0 1.0 0.00 0.00 0.00 89 1017.8
20260902070105 77 79 0.0 0.0 0.00 0.00 0.00 89 1017.8
20260902065551 77 0 0.0 1.0 0.00 0.00 0.00 88 1017.7
20260902065051 77 0 0.0 2.0 0.00 0.00 0.00 88 1017.9
20260902064601 77 78 0.0 2.0 0.00 0.00 0.00 88 1017.8
20260902064052 77 0 0.0 1.0 0.00 0.00 0.00 88 1017.8
20260902063552 76 94 0.0 1.0 0.00 0.00 0.00 89 1017.9
20260902063102 76 0 0.0 1.0 0.00 0.00 0.00 90 1017.8
20260902062552 76 0 0.0 1.0 0.00 0.00 0.00 91 1017.8
20260902062052 76 0 0.0 1.0 0.00 0.00 0.00 91 1017.8
20260902061600 76 0 0.0 0.0 0.00 0.00 0.00 92 1017.8
20260902061051 77 0 0.0 1.0 0.00 0.00 0.00 92 1017.8
20260902060553 77 0 0.0 1.0 0.00 0.00 0.00 92 1017.9
20260902060108 76 0 0.0 1.0 0.00 0.00 0.00 92 1017.9
20260902055552 76 0 0.0 1.0 0.00 0.00 0.00 92 1017.8
20260902055052 76 0 0.0 0.0 0.00 0.00 0.00 91 1017.8
20260902054610 76 0 0.0 0.0 0.00 0.00 0.00 92 1018.0
20260902054051 77 0 0.0 0.0 0.00 0.00 0.00 92 1017.8
20260902053552 77 0 0.0 0.0 0.00 0.00 0.00 92 1017.8
20260902053117 77 0 0.0 0.0 0.00 0.00 0.00 92 1017.8
20260902052551 77 0 0.0 0.0 0.00 0.00 0.00 92 1017.8
20260902052051 77 0 0.0 0.0 0.00 0.00 0.00 91 1017.7
20260902051619 77 0 0.0 1.0 0.00 0.00 0.00 91 1017.8
20260902051051 78 0 0.0 1.0 0.00 0.00 0.00 91 1017.6
20260902050551 78 0 0.0 0.0 0.00 0.00 0.00 90 1017.6
20260902050111 78 0 0.0 0.0 0.00 0.00 0.00 90 1017.6
20260902045552 78 0 0.0 0.0 0.00 0.00 0.00 90 1017.5
20260902045052 78 0 0.0 0.0 0.00 0.00 0.00 89 1017.6
20260902044600 78 0 0.0 0.0 0.00 0.00 0.00 88 1017.5
20260902044052 78 0 0.0 0.0 0.00 0.00 0.00 87 1017.4
20260902043551 78 0 0.0 0.0 0.00 0.00 0.00 88 1017.4
20260902043121 78 0 0.0 0.0 0.00 0.00 0.00 87 1017.5
20260902042551 79 0 0.0 0.0 0.00 0.00 0.00 87 1017.5
20260902042052 79 0 0.0 0.0 0.00 0.00 0.00 86 1017.5
20260902041604 79 0 0.0 1.0 0.00 0.00 0.00 86 1017.4
20260902041051 79 0 0.0 1.0 0.00 0.00 0.00 85 1017.4
20260902040551 79 0 0.0 0.0 0.00 0.00 0.00 85 1017.4
20260902040110 79 0 0.0 1.0 0.00 0.00 0.00 85 1017.4
20260902035552 80 0 0.0 1.0 0.00 0.00 0.00 85 1017.5
20260902035052 79 0 0.0 1.0 0.00 0.00 0.00 86 1017.5
20260902034606 79 96 0.0 1.0 0.00 0.00 0.00 86 1017.5
20260902034052 79 0 0.0 1.0 0.00 0.00 0.00 87 1017.5
20260902033551 80 0 0.0 1.0 0.00 0.00 0.00 87 1017.5
20260902033100 80 0 0.0 1.0 0.00 0.00 0.00 87 1017.5
20260902032552 80 0 0.0 1.0 0.00 0.00 0.00 87 1017.6
20260902032051 80 0 0.0 1.0 0.00 0.00 0.00 87 1017.5
20260902031559 80 0 0.0 0.0 0.00 0.00 0.00 87 1017.5
20260902031051 81 0 0.0 1.0 0.00 0.00 0.00 86 1017.5
20260902030553 81 0 0.0 1.0 0.00 0.00 0.00 84 1017.5
20260902030110 81 0 0.0 1.0 0.00 0.00 0.00 83 1017.4
20260902025551 81 0 0.0 1.0 0.00 0.00 0.00 82 1017.4
20260902025052 81 0 0.0 1.0 0.00 0.00 0.00 83 1017.4
20260902024556 81 0 0.0 0.0 0.00 0.00 0.00 82 1017.3
20260902024051 81 0 0.0 0.0 0.00 0.00 0.00 82 1017.3
20260902023553 81 0 0.0 0.0 0.00 0.00 0.00 81 1017.1
20260902023111 82 0 0.0 1.0 0.00 0.00 0.00 81 1017.2
20260902022554 82 0 0.0 1.0 0.00 0.00 0.00 80 1017.2
20260902022052 82 0 0.0 1.0 0.00 0.00 0.00 80 1017.1
20260902021604 82 0 0.0 0.0 0.00 0.00 0.00 80 1017.1
20260902021053 83 0 0.0 0.0 0.00 0.00 0.00 81 1017.1
20260902020552 83 0 0.0 0.0 0.00 0.00 0.00 80 1017.0
20260902020100 83 0 0.0 0.0 0.00 0.00 0.00 78 1017.1
20260902015551 83 0 0.0 0.0 0.00 0.00 0.00 78 1017.0
20260902015051 83 0 0.0 0.0 0.00 0.00 0.00 78 1017.0
20260902014601 83 0 0.0 0.0 0.00 0.00 0.00 77 1016.9
20260902014051 83 0 0.0 0.0 0.00 0.00 0.00 75 1016.8
20260902013552 84 0 0.0 0.0 0.00 0.00 0.00 75 1016.8
20260902013102 84 0 0.0 0.0 0.00 0.00 0.00 75 1016.8
20260902012552 84 0 0.0 0.0 0.00 0.00 0.00 75 1016.8
20260902012051 85 0 0.0 0.0 0.00 0.00 0.00 76 1016.7
20260902011638 85 0 0.0 0.0 0.00 0.00 0.00 75 1016.7
20260902011052 86 0 0.0 0.0 0.00 0.00 0.00 75 1016.7
20260902010552 86 0 0.0 0.0 0.00 0.00 0.00 73 1016.7
20260902010101 86 0 0.0 0.0 0.00 0.00 0.00 71 1016.7
20260902005552 87 0 0.0 0.0 0.00 0.00 0.00 70 1016.6
20260902005051 87 0 0.0 0.0 0.00 0.00 0.00 68 1016.6
20260902004609 88 0 0.0 0.0 0.00 0.00 0.00 66 1016.5
20260902004054 89 0 0.0 0.0 0.00 0.00 0.00 65 1016.5
20260902003553 89 0 0.0 1.0 0.00 0.00 0.00 64 1016.4
20260902003111 90 0 0.0 1.0 0.00 0.00 0.00 62 1016.4
20260902002551 91 0 0.0 1.0 0.00 0.00 0.00 61 1016.4
20260902002051 91 0 0.0 1.0 0.00 0.00 0.00 60 1016.4
20260902001601 92 0 0.0 1.0 0.00 0.00 0.00 60 1016.5
20260902001051 92 0 0.0 3.0 0.00 0.00 0.00 59 1016.5
20260902000551 92 98 0.0 3.0 0.00 0.00 0.00 58 1016.5
20260902000106 93 0 0.0 3.0 0.00 0.00 0.00 57 1016.5
20260901235552 93 293 0.0 3.0 0.00 0.00 0.00 57 1016.5
20260901235051 93 293 1.0 3.0 0.00 0.00 0.00 56 1016.5
20260901234610 94 98 0.0 3.0 0.00 0.00 0.00 56 1016.6
20260901234052 94 96 1.0 3.0 0.00 0.00 0.00 55 1016.7
20260901233552 94 0 0.0 2.0 0.00 0.00 0.00 55 1016.7
20260901233106 95 103 0.0 3.0 0.00 0.00 0.00 54 1016.8
20260901232552 95 83 1.0 3.0 0.00 0.00 0.00 54 1016.8
20260901232053 95 65 1.0 3.0 0.00 0.00 0.00 54 1016.8
20260901231615 95 69 0.0 2.0 0.00 0.00 0.00 54 1016.8
20260901231051 94 57 0.0 2.0 0.00 0.00 0.00 54 1016.8
20260901230554 94 153 0.0 3.0 0.00 0.00 0.00 54 1017.0
20260901230113 95 83 0.0 6.0 0.00 0.00 0.00 53 1016.8
20260901225552 95 181 1.0 6.0 0.00 0.00 0.00 52 1017.0
20260901225052 96 61 2.0 6.0 0.00 0.00 0.00 51 1016.9
20260901224559 97 279 1.0 4.0 0.00 0.00 0.00 50 1016.9
20260901224053 97 71 1.0 4.0 0.00 0.00 0.00 49 1016.8
20260901223554 97 51 1.0 4.0 0.00 0.00 0.00 49 1016.9
20260901223103 97 79 1.0 4.0 0.00 0.00 0.00 49 1016.8
20260901222552 97 44 1.0 4.0 0.00 0.00 0.00 51 1016.8
20260901222051 97 309 1.0 5.0 0.00 0.00 0.00 51 1016.9
20260901221625 97 72 2.0 5.0 0.00 0.00 0.00 51 1016.8
20260901221051 96 91 1.0 4.0 0.00 0.00 0.00 52 1016.8
20260901220553 95 103 0.0 2.0 0.00 0.00 0.00 54 1016.8
20260901220123 95 0 1.0 2.0 0.00 0.00 0.00 54 1016.8
20260901215552 95 0 0.0 3.0 0.00 0.00 0.00 54 1016.8
20260901215052 96 67 0.0 3.0 0.00 0.00 0.00 52 1016.8
20260901214603 96 87 0.0 3.0 0.00 0.00 0.00 52 1016.8
20260901214052 96 131 0.0 4.0 0.00 0.00 0.00 51 1016.8
20260901213552 97 306 1.0 4.0 0.00 0.00 0.00 49 1016.9
20260901213110 98 86 1.0 4.0 0.00 0.00 0.00 48 1016.9
20260901212551 98 53 0.0 3.0 0.00 0.00 0.00 47 1017.0
20260901212052 99 134 1.0 8.0 0.00 0.00 0.00 46 1016.9
20260901211601 99 104 2.0 8.0 0.00 0.00 0.00 47 1016.9
20260901211051 100 82 2.0 5.0 0.00 0.00 0.00 45 1017.0
20260901210551 100 79 1.0 5.0 0.00 0.00 0.00 47 1017.0
20260901210119 100 61 1.0 5.0 0.00 0.00 0.00 46 1017.1
20260901205552 100 145 1.0 5.0 0.00 0.00 0.00 46 1017.1
20260901205051 101 81 1.0 3.0 0.00 0.00 0.00 46 1017.0
20260901204623 101 119 1.0 3.0 0.00 0.00 0.00 46 1017.1
20260901204052 101 202 1.0 6.0 0.00 0.00 0.00 48 1017.1
20260901203556 100 91 2.0 6.0 0.00 0.00 0.00 49 1017.2